RH
68 63 35 34 34 31 36 82 100 100 100 100 100 100 98 100 98 99 100 100 100 100 100 100 100 100 94 80 86 82 84 69 77 78 71 61 51 71 52 26 22 23 20 21 22
87 57 38 31 36 27 27 29 39 83 93 98 100 100 100 99 92 99 100 100 95 100 100 100 100 100 100 98 97 94 86 71 63 58 68 70 61 42 30 27 24 25 23 25 23
93 93 69 53 63 63 52 41 32 32 42 56 81 92 98 100 100 94 98 99 98 100 100 96 100 100 100 100 100 90 83 70 52 52 48 44 42 30 26 25 25 28 34 28 27
100 100 99 100 88 74 69 60 58 39 38 43 39 48 59 66 89 88 83 88 84 76 92 98 100 98 90 100 100 100 89 90 74 61 54 36 28 25 27 27 22 29 32 26 31
99 100 100 100 92 100 100 84 69 60 63 62 58 55 60 64 85 89 97 93 93 90 71 92 100 100 100 100 100 100 100 100 100 82 83 41 30 23 33 21 29 31 23 33 45
100 100 97 100 88 68 71 100 80 95 77 71 94 93 89 80 80 89 90 95 86 92 85 58 83 88 93 96 99 100 100 100 100 100 94 56 31 41 26 30 40 30 20 30 47
100 100 100 85 97 99 61 75 96 92 100 93 87 82 92 100 96 97 98 79 94 93 95 67 55 74 81 98 88 74 56 82 100 100 100 76 52 61 37 40 38 31 22 30 52
100 100 100 100 99 100 98 100 68 72 83 88 94 86 94 100 100 97 96 100 84 86 79 82 62 56 77 92 87 80 53 100 100 99 87 69 92 76 65 43 46 33 27 37 60
100 100 99 91 93 100 100 100 100 98 77 75 91 89 99 98 99 100 100 100 100 86 84 82 73 72 65 75 78 88 62 68 94 100 81 76 73 74 70 65 43 38 46 83 98
94 100 98 77 89 84 100 100 99 100 100 77 70 82 92 100 100 100 100 100 100 85 94 86 69 68 76 100 100 83 63 61 84 100 96 87 81 69 71 82 67 69 82 71 100
83 100 100 97 96 70 77 86 88 95 80 90 94 87 84 100 100 100 100 100 86 78 93 90 80 96 97 84 78 78 78 74 98 100 100 100 87 62 100 100 100 67 50 67 100
100 100 100 100 100 89 78 58 67 76 92 94 88 80 87 93 100 100 100 86 74 84 95 91 78 93 84 82 91 74 84 100 100 100 98 89 67 59 100 100 100 84 100 86 100
100 100 100 100 100 100 100 97 78 84 75 66 70 71 79 76 72 94 94 85 75 79 71 74 72 68 97 89 94 90 88 100 100 100 91 88 81 79 82 93 100 100 100 100 98
100 100 100 100 100 100 100 100 100 100 100 100 73 44 60 76 69 71 69 73 72 71 81 64 70 59 82 94 96 100 100 96 90 89 97 90 74 70 76 93 84 100 89 84 99
100 100 100 100 100 100 100 100 100 100 100 100 100 94 78 73 58 66 69 66 71 68 74 59 70 68 62 80 91 94 95 89 99 97 86 81 72 75 68 70 100 90 96 100 100
100 100 100 100 100 100 100 100 100 100 100 100 100 100 100 91 92 71 68 67 59 62 67 66 87 89 96 79 76 80 87 92 96 96 60 60 90 70 62 78 62 86 100 100 100
93 100 100 100 100 100 93 100 100 100 100 100 100 100 100 100 100 79 76 72 82 70 66 77 72 76 97 93 87 87 95 91 78 78 73 78 67 81 84 98 100 100 100 100 97
65 92 100 100 100 100 100 77 76 65 66 93 94 97 100 100 100 100 100 84 82 95 100 88 71 87 78 84 89 96 81 90 81 88 97 81 50 63 79 90 100 100 100 100 99
100 62 60 76 84 94 99 100 100 99 80 99 100 100 91 100 99 94 99 92 65 78 86 84 62 66 54 61 69 89 79 78 100 99 80 82 73 83 96 100 100 98 99 86 75
84 93 96 79 72 85 97 52 50 73 68 52 64 83 94 100 93 100 100 100 92 82 77 69 71 67 73 71 47 51 78 92 82 78 73 81 69 73 84 100 100 93 90 98 100
51 59 64 56 63 57 54 54 53 52 45 44 58 52 68 74 100 100 100 100 100 100 91 69 56 46 63 61 74 77 72 67 69 64 67 64 73 93 96 97 100 100 100 100 100
37 37 43 39 36 27 25 27 27 30 37 45 55 49 77 94 92 61 100 100 100 100 100 100 100 56 60 96 86 75 72 69 80 74 92 84 62 70 80 88 100 100 93 100 100
39 37 33 30 29 25 22 24 24 27 23 29 28 27 34 40 44 39 79 98 100 100 100 100 100 99 79 82 67 94 100 97 82 65 60 75 88 80 68 56 72 78 71 82 90
30 28 27 26 26 26 26 23 20 23 23 21 23 26 29 30 31 34 36 41 54 81 100 100 100 100 100 100 100 96 73 97 100 100 100 94 100 100 83 85 68 62 79 94 60
18 17 16 14 13 13 12 12 11 11 11 11 11 13 15 16 19 19 22 30 38 43 63 97 100 100 100 100 100 100 100 98 98 97 100 100 100 91 100 100 91 76 97 94 99
12 12 12 11 11 11 11 11 10 11 10 10 10 11 11 10 13 13 14 19 24 34 44 56 67 95 100 100 100 100 100 100 100 100 100 94 90 100 100 100 91 100 100 96 100
12 11 10 11 12 11 12 12 11 10 10 10 10 11 11 12 12 11 12 13 16 19 25 43 60 87 97 100 100 100 100 100 100 100 100 100 100 100 100 100 100 100 100 100 100
Wind_Speed
66 68 65 63 61 62 59 58 59 58 58 57 56 53 52 55 51 47 45 48 48 53 55 53 50 51 58 60 59 55 56 55 49 46 47 47 47 51 54 56 52 54 50 47 46
70 69 68 67 65 65 65 65 63 62 59 58 54 53 52 54 56 52 53 55 55 52 54 56 56 56 58 58 59 58 59 56 55 55 48 49 52 54 55 57 54 49 46 48 47
77 76 75 75 74 72 69 69 66 64 60 62 63 59 58 60 61 61 60 61 61 62 61 62 61 62 60 59 59 57 61 58 60 57 54 51 55 58 59 53 52 52 53 50 45
84 83 80 80 78 76 76 75 75 70 67 66 66 67 64 65 68 63 65 64 65 63 64 65 66 63 63 61 60 61 64 55 56 58 60 57 59 63 61 53 53 49 48 50 48
91 88 86 86 83 85 83 82 79 77 74 71 70 65 66 66 68 68 68 69 68 68 67 67 66 65 65 63 61 58 61 58 58 63 60 57 60 64 60 51 47 45 46 49 48
96 95 94 92 88 88 88 85 83 84 79 75 72 73 72 71 70 72 72 71 70 69 68 70 72 68 67 68 63 63 66 66 63 64 64 64 62 61 57 51 48 47 43 44 46
101 102 102 97 95 91 86 87 89 88 90 85 80 77 72 79 73 76 77 77 73 73 74 70 71 73 70 72 67 69 70 70 65 62 63 66 62 62 58 48 48 47 40 41 44
107 107 104 102 98 98 95 94 89 90 90 90 89 85 78 85 78 77 77 82 81 78 77 76 72 75 75 72 70 71 70 63 67 68 65 62 54 63 57 52 46 42 41 41 44
108 105 105 104 102 100 100 101 100 97 90 90 86 83 80 86 82 81 79 81 81 80 77 76 73 73 75 76 77 73 70 67 70 70 65 60 56 62 58 50 41 38 41 45 46
102 106 106 105 103 100 101 104 103 101 99 94 85 83 84 88 86 89 83 77 76 74 74 76 72 71 74 78 77 75 69 66 65 69 64 59 54 57 57 50 42 42 44 48 48
103 105 103 103 106 105 100 99 98 97 97 92 87 89 84 87 85 85 83 81 80 75 75 74 68 69 76 74 71 66 64 61 63 61 57 54 53 49 49 52 50 44 45 49 52
108 104 105 99 100 103 103 105 103 100 95 91 90 84 84 86 79 82 86 84 83 77 75 71 66 74 75 71 63 60 58 55 57 60 56 54 53 50 47 52 51 44 46 50 55
111 112 107 104 101 103 101 101 106 101 104 99 97 89 89 91 85 80 84 81 81 79 80 76 70 74 73 69 67 62 60 60 59 62 57 54 50 47 46 48 58 51 49 53 61
115 116 113 111 107 106 105 103 104 101 104 100 106 102 97 95 90 86 86 87 83 81 83 73 70 72 74 69 70 64 65 65 66 66 60 57 55 55 52 54 55 57 53 50 57
119 118 120 115 114 112 110 108 109 105 109 106 104 102 104 104 99 94 90 85 83 86 83 71 70 75 71 70 78 70 73 68 66 68 66 65 62 53 57 57 58 58 56 58 63
127 125 126 121 121 122 121 117 117 114 109 109 107 103 102 105 106 101 99 96 92 90 85 78 78 78 79 77 76 75 75 74 71 72 70 71 75 57 61 61 62 59 62 67 69
131 129 127 128 132 132 131 129 125 122 114 115 116 113 112 111 107 105 103 102 99 96 89 91 84 84 85 83 85 83 84 83 80 78 77 75 79 59 64 64 66 67 67 69 72
140 138 135 130 134 135 138 139 135 130 124 124 124 123 123 118 111 111 109 103 104 102 101 97 91 92 91 91 91 92 92 90 88 84 81 84 76 68 68 69 68 69 73 74 75
141 143 141 139 141 141 141 142 136 132 130 128 126 130 129 124 118 119 116 111 107 107 108 107 98 97 97 98 97 90 95 91 96 93 89 84 80 75 73 74 78 78 80 81 81
147 149 146 147 148 149 151 150 144 142 141 138 133 134 131 126 126 124 122 115 111 112 113 111 107 102 103 107 98 99 96 98 101 97 95 89 89 82 80 78 84 86 86 88 88
144 147 152 152 154 159 158 158 151 149 149 147 142 137 135 134 133 131 129 121 120 116 121 118 119 108 113 108 106 111 108 106 103 101 97 92 87 85 86 89 89 90 91 92 94
139 138 139 144 147 152 153 149 147 145 147 145 148 144 143 144 142 135 135 130 121 115 116 113 119 122 117 116 116 115 110 113 110 100 101 97 89 90 91 92 93 93 94 98 100
132 137 138 143 141 143 140 137 137 137 136 135 137 134 138 138 142 137 140 139 136 127 120 119 117 118 118 119 118 112 106 109 111 110 105 104 93 94 93 95 99 101 104 102 105
124 126 126 125 124 123 123 120 117 115 118 117 116 117 122 119 125 125 131 135 138 134 127 120 118 114 105 110 112 112 111 108 112 111 105 105 95 96 96 96 98 98 99 97 99
107 108 109 108 109 108 109 105 105 100 100 104 103 101 103 104 109 111 112 118 122 126 126 127 126 123 115 115 118 114 110 116 113 112 110 102 102 106 96 99 101 94 95 97 98
97 99 99 98 97 98 98 93 94 89 90 90 92 91 93 93 96 99 99 101 109 113 118 125 125 124 119 119 124 116 113 112 106 113 114 117 110 102 100 103 101 95 103 102 102
87 85 87 85 87 84 85 86 82 82 81 77 81 81 84 81 90 92 90 91 94 101 109 112 116 117 118 122 131 126 116 116 117 117 111 116 105 110 108 103 104 107 109 116 109
Wind_Direction
253 252 252 252 255 256 255 260 257 259 260 258 260 262 263 265 266 266 273 278 279 282 284 283 280 282 285 287 290 291 291 294 295 290 287 288 288 287 293 297 296 296 296 295 294
254 254 252 251 255 257 260 260 261 259 261 257 258 262 266 267 267 268 267 269 273 276 278 279 280 282 284 288 287 287 289 290 293 291 289 286 288 292 294 296 299 300 294 295 290
254 256 253 253 256 257 260 263 262 260 262 263 263 262 266 271 270 268 270 274 275 276 276 273 274 278 280 283 284 287 289 293 291 291 289 286 292 294 295 296 300 297 295 295 288
255 255 258 258 259 257 260 263 263 262 262 263 265 266 269 273 275 278 278 279 279 280 279 276 278 278 285 282 285 288 288 287 287 288 291 293 291 293 295 296 295 293 294 293 288
255 254 254 255 258 260 259 260 261 262 264 265 268 266 269 272 274 274 276 278 279 280 281 274 276 280 284 282 283 285 286 283 283 287 288 291 291 295 296 297 291 291 291 289 285
256 256 256 255 256 259 259 261 263 263 264 263 266 269 271 272 272 274 276 277 278 280 281 277 272 273 277 280 284 281 286 284 281 283 286 288 296 295 293 297 290 290 292 287 279
257 258 257 258 256 258 261 262 261 261 260 261 262 267 269 269 271 274 276 279 278 279 279 278 277 274 272 275 280 281 283 282 279 277 282 290 297 290 293 292 289 288 288 283 276
254 256 259 258 259 261 259 260 261 262 262 263 264 267 267 270 272 273 275 275 276 278 280 280 279 277 271 274 277 280 282 277 275 276 281 289 288 285 287 291 287 280 286 278 274
254 254 257 257 257 257 259 259 261 263 263 261 263 265 269 269 270 271 272 273 277 278 280 279 277 276 276 275 276 278 277 273 276 280 281 282 279 282 285 287 281 275 276 278 274
255 256 257 257 257 255 256 257 259 262 264 263 263 266 267 267 269 270 267 270 274 277 274 275 276 277 277 273 273 277 275 275 274 277 279 277 273 278 283 278 276 272 274 276 274
257 257 258 259 258 258 256 255 261 261 263 262 260 262 265 263 264 267 266 268 270 272 269 271 274 275 272 274 274 270 270 274 273 270 273 272 272 277 276 273 276 275 276 273 273
259 258 259 258 262 263 263 261 262 263 263 263 260 261 262 261 261 265 266 268 270 267 267 270 271 268 271 274 270 269 269 266 268 272 272 274 276 272 276 269 272 275 274 272 272
257 259 259 260 261 260 262 265 266 268 268 267 264 262 262 265 262 264 268 268 268 267 266 266 268 269 268 268 266 265 267 262 267 273 276 274 267 268 270 270 273 275 276 271 268
259 258 258 259 260 261 260 261 263 265 268 267 269 267 266 265 264 261 263 265 267 267 266 268 267 263 264 264 266 264 266 267 271 274 277 275 271 270 267 268 271 276 276 276 276
258 258 261 260 260 260 260 261 261 265 264 266 267 268 269 268 266 264 264 263 266 267 264 266 266 267 267 268 266 266 267 269 274 278 280 283 273 270 269 270 271 274 277 272 273
257 257 259 260 260 260 261 261 261 262 262 263 264 266 267 266 269 269 267 268 264 266 267 267 265 269 270 268 270 270 270 270 272 274 279 282 281 277 273 273 274 276 275 275 276
254 255 257 259 262 260 259 258 259 262 264 264 264 263 264 265 265 265 266 269 271 271 270 268 267 268 269 271 273 273 273 272 273 275 277 279 276 283 281 279 276 278 277 275 276
253 254 254 256 258 260 262 261 260 261 262 264 263 263 266 267 266 267 266 265 268 269 268 268 268 269 270 270 270 269 273 273 274 277 274 274 283 279 280 278 273 277 276 276 280
253 254 253 255 255 255 256 259 261 260 259 262 263 265 264 266 267 267 268 267 265 267 267 267 266 267 269 270 268 272 273 275 274 275 279 279 280 276 274 277 279 279 278 281 281
252 252 253 255 254 253 255 256 256 258 258 256 257 261 264 266 266 267 268 269 267 265 266 266 268 267 269 271 271 272 272 272 275 274 277 275 275 276 277 276 278 280 280 281 282
254 254 253 253 256 256 255 257 256 257 257 258 258 258 260 262 263 265 267 266 267 268 269 270 270 269 270 272 273 272 272 273 272 275 276 275 274 275 277 276 275 275 276 279 280
257 255 256 256 256 257 257 259 259 260 259 259 260 257 258 259 260 259 261 262 262 263 263 266 267 269 272 271 271 272 275 277 277 279 274 272 272 274 274 275 272 275 278 277 277
253 254 254 256 258 260 262 263 262 261 260 261 261 261 260 259 258 257 257 258 258 259 258 261 263 265 265 270 272 270 270 268 272 274 276 278 282 278 277 277 273 274 276 276 277
253 255 257 258 260 262 262 261 262 261 260 261 261 259 258 257 257 254 255 254 254 255 255 255 256 258 261 262 262 265 270 268 268 269 272 274 278 278 279 275 275 279 277 276 281
256 257 258 259 259 260 261 261 262 261 260 260 260 260 258 257 257 255 253 253 252 252 251 252 252 252 255 258 257 259 263 265 267 268 270 272 272 276 271 271 274 280 277 282 283
256 256 258 258 259 260 261 262 261 260 257 256 257 257 256 255 254 254 251 250 250 250 248 250 250 249 254 253 254 255 257 261 261 268 262 268 272 272 273 275 277 271 269 276 279
255 255 255 256 257 258 259 257 258 259 259 256 255 252 253 254 252 252 250 249 248 249 248 248 247 247 249 248 251 255 254 257 256 263 264 265 266 266 271 273 272 276 275 277 279